Flag for Cayman Islands Weather past 2 weeks in George Town, Cayman Islands

Now
79 °F

Passing clouds.


Feels Like: 82 °F
Forecast: 81 / 84 °F
Wind: 6 mph from Northeast

Location: Owen Roberts Airportgrand Cayman

Current Time: May 25, 2015 at 9:19:12 PM

Latest Report: May 25, 2015 at 9:00 PM


Visibility: N/A

Pressure: 30.04 "Hg

Humidity: 84%

Dew point: 73 °F

Location of George TownLocation

Historic Weather in George Town — Graph

°F

George Town temperature yesterday

Maximum temperature yesterday: 90 °F (at 12:00 PM)
Minimum temperature yesterday: 81 °F (at 6:00 AM)
Average temperature yesterday: 86 °F

Past Weeks' High & Low Weather Summary

 TemperatureHumidityPressure
High90 °F (May 15, 12:00 PM)100% (May 18, 12:00 PM)30.09 "Hg (May 18, 12:00 PM)
Low77 °F (May 18, 12:00 PM)59% (May 24, 2:00 PM)29.92 "Hg (May 20, 4:00 PM)
Average84 °F79%30.01 "Hg
* Reported May 10 8:00 PM — May 25 8:00 PM, George Town, Weather by CustomWeather, © 2015

Note: Actual official high and low records may vary slightly from our data, if they occured in-between our weather recording intervals... More about our weather records

Advertising

George Town weather history for previous 24 hours

 ConditionsComfort  
Time TempWeatherWind HumidityBarometerVisibility
8:00 PM
Mon, May 25
81 °FSprinkles. Passing clouds.15 mph79%30.04 "HgN/A
7:00 PM84 °FPassing clouds.8 mph74%30.01 "HgN/A
6:00 PM84 °FScattered showers. Scattered clouds.10 mph74%30.01 "HgN/A
5:00 PM88 °FPassing clouds.8 mph70%29.98 "HgN/A
4:00 PM86 °FScattered showers. Passing clouds.10 mph75%29.98 "HgN/A
3:00 PM88 °FPassing clouds.9 mph70%29.98 "HgN/A
2:00 PM88 °FScattered clouds.10 mph70%30.01 "HgN/A
1:00 PM88 °FPassing clouds.12 mph70%30.01 "HgN/A
12:00 PM88 °FPassing clouds.14 mph66%30.04 "HgN/A
11:00 AM88 °FScattered clouds.12 mph66%30.04 "HgN/A
10:00 AM88 °FScattered clouds.12 mph70%30.04 "HgN/A
9:00 AM86 °FPassing clouds.12 mph70%30.04 "HgN/A
8:00 AM84 °FPassing clouds.8 mph79%30.04 "HgN/A
7:00 AM82 °FPassing clouds.8 mph89%30.01 "HgN/A
6:00 AM81 °FScattered clouds.6 mph89%30.01 "HgN/A
10:00 PM
Sun, May 24
82 °FPassing clouds.5 mph89%30.04 "HgN/A
9:00 PM82 °FPassing clouds.7 mph84%30.04 "HgN/A
Weather by CustomWeather, © 2015

See weather overviewHow to use our weather pages